Home   Weather   Malmö   Past weeks

Flag for Sweden Past Weather in Malmö, Sweden — Yesterday and Last 2 Weeks

Now
54 °F

Fog.


Feels Like: 50 °F
Forecast: 48 / 66 °F
Wind: 12 mph from Northwest

Location: Malmo / Sturup

Current Time: May 24, 2017 at 8:08:11 am

Latest Report: May 24, 2017 at 7:50 am


Visibility: 5 mi

Pressure: 29.92 "Hg

Humidity: 88%

Dew Point: 50 °F

Location of MalmöLocation

Past Weather in Malmö — Graph

°F

Malmö Temperature Yesterday

Maximum temperature yesterday: 70 °F (at 5:50 pm)
Minimum temperature yesterday: 41 °F (at 2:20 am)
Average temperature yesterday: 57 °F

High & Low Weather Summary for the Past Weeks

 TemperatureHumidityPressure
High75 °F (May 19, 1:50 pm)100% (May 10, 1:20 am)30.42 "Hg (May 10, 1:20 am)
Low36 °F (May 9, 6:20 am)32% (May 9, 11:50 am)29.71 "Hg (May 10, 3:50 am)
Average54 °F75%30.01 "Hg
* Reported May 9 6:20 am — May 24 6:50 am, Malmö. Weather by CustomWeather, © 2017

Note: Actual official high and low records may vary slightly from our data, if they occured in-between our weather recording intervals... More about our weather records

Advertising

Malmö Weather History for the Previous 24 Hours

Scroll right to see more
 ConditionsComfort  
Time TempWeatherWind HumidityBarometerVisibility
6:50 am
Wed, May 24
54 °FLow clouds.9 mph88%29.92 "HgN/A
6:20 am54 °FFog.10 mph88%29.92 "Hg6 mi
5:50 am54 °FFog.12 mph88%29.92 "Hg5 mi
5:20 am54 °FFog.12 mph94%29.92 "Hg5 mi
4:50 am54 °FLight rain. Low clouds.12 mph94%29.89 "Hg5 mi
4:20 am54 °FLow clouds.12 mph88%29.89 "HgN/A
3:50 am54 °FLow clouds.13 mph94%29.89 "HgN/A
3:20 am55 °FLow clouds.13 mph88%29.89 "HgN/A
2:50 am55 °FOvercast.13 mph88%29.92 "HgN/A
2:20 am55 °FPassing clouds.13 mph88%29.92 "HgN/A
1:50 am57 °FClear.10 mph88%29.89 "Hg10 mi
1:20 am57 °FClear.8 mph88%29.89 "Hg10 mi
12:50 am57 °FClear.6 mph88%29.92 "Hg10 mi
12:20 am59 °FClear.9 mph82%29.92 "Hg10 mi
11:50 pm
Tue, May 23
59 °FClear.8 mph82%29.92 "Hg10 mi
11:20 pm59 °FClear.6 mph77%29.92 "Hg10 mi
10:50 pm59 °FClear.7 mph77%29.92 "Hg10 mi
10:20 pm57 °FClear.8 mph77%29.92 "Hg10 mi
9:50 pm54 °FClear.5 mph88%29.92 "Hg10 mi
9:20 pm57 °FSunny.5 mph82%29.89 "Hg10 mi
8:50 pm59 °FSunny.6 mph82%29.89 "Hg10 mi
8:20 pm59 °FSunny.7 mph77%29.89 "Hg10 mi
7:50 pm63 °FSunny.6 mph64%29.89 "Hg10 mi
7:20 pm66 °FSunny.7 mph56%29.92 "Hg10 mi
6:50 pm66 °FSunny.7 mph56%29.92 "Hg10 mi
6:20 pm68 °FPassing clouds.6 mph53%29.89 "HgN/A
5:50 pm70 °FPassing clouds.6 mph53%29.92 "HgN/A
5:20 pm68 °FPassing clouds.6 mph53%29.92 "HgN/A
4:50 pm66 °FPassing clouds.6 mph56%29.92 "HgN/A
4:20 pm68 °FPassing clouds.8 mph56%29.92 "HgN/A
3:50 pm68 °FSunny.7 mph56%29.95 "Hg10 mi
3:20 pm66 °FSunny.8 mph56%29.95 "Hg10 mi
2:50 pm66 °FPassing clouds.8 mph56%29.95 "HgN/A
2:20 pm66 °FPassing clouds.6 mph56%29.95 "HgN/A
1:50 pm66 °FPassing clouds.6 mph56%29.95 "HgN/A
1:20 pm66 °FSunny.8 mph56%29.95 "Hg10 mi
12:50 pm64 °FSunny.8 mph56%29.98 "Hg10 mi
12:20 pm66 °FSunny.9 mph52%29.98 "Hg10 mi
11:50 am64 °FPassing clouds.8 mph60%29.98 "HgN/A
11:20 am64 °FSunny.9 mph60%29.98 "Hg10 mi
10:50 am64 °FPassing clouds.8 mph56%29.98 "HgN/A
10:20 am64 °FPassing clouds.6 mph64%29.98 "HgN/A
9:50 am63 °FSunny.6 mph64%29.98 "Hg10 mi
9:20 am61 °FPassing clouds.7 mph68%30.01 "HgN/A
8:50 am61 °FPartly sunny.8 mph68%30.01 "HgN/A
8:20 am59 °FPassing clouds.5 mph72%30.01 "HgN/A
Weather by CustomWeather, © 2017

See weather overviewHow to use our weather pages